Location: Raleigh
(35.7720°N, 78.6390°W)
Time: 18:23:42
(UTC-04:00)

Amateur Radio Satellites - All Passes

Search period start: 20 August 2014 17:53
Search period end: 21 August 2014 17:53
Location: Raleigh, 35.7720°N, 78.6390°W

Satellite Date Start Highest point End Downlink Frequencies (MHz)
Time Altitude Azimuth
JAS-2 20 Aug 18:02:28 18:09:02 48° 72° (ENE) 18:14:53 435.800 - 435.900 CW/SSB, 435.910 FM
AO-7 20 Aug 18:13:05 18:19:42 26° 264° (W) 18:26:21 29.400 - 29.500 MHz
Sapphire 20 Aug 18:18:31 18:19:03 10° 102° (ESE) 18:19:35 437.095 MHz 1200 baud AX-25 AFSK
PANSAT 20 Aug 18:35:23 18:38:35 25° 174° (S) 18:41:48 not established
PCSat 20 Aug 18:45:14 18:49:23 23° 106° (ESE) 18:53:34 145.825 MHz
Hamsat 20 Aug 18:52:16 18:56:22 48° 261° (W) 19:00:32 145.90 MHz
STRAND 1 20 Aug 18:56:01 18:59:06 16° 93° (E) 19:02:10 ?
OPAL 20 Aug 19:09:45 19:12:41 15° 298° (WNW) 19:15:38 ?
UOSAT-12 20 Aug 19:14:31 19:17:41 18° 251° (WSW) 19:20:48 437.025 FM, 437.400 FM
SO-67 20 Aug 19:34:51 19:38:18 69° 77° (ENE) 19:41:45 435.3500 MHz FM
JAS-2 20 Aug 19:48:36 19:54:08 25° 264° (W) 19:59:13 435.800 - 435.900 CW/SSB, 435.910 FM
RS-15 20 Aug 19:50:29 20:01:36 79° 244° (WSW) 20:13:11 29.354 - 29.394 USB, Beacon 29.352 USB
Sapphire 20 Aug 19:56:16 20:01:40 83° 296° (WNW) 20:07:07 437.095 MHz 1200 baud AX-25 AFSK
PANSAT 20 Aug 20:15:10 20:18:20 24° 187° (S) 20:21:29 not established
ISS 20 Aug 20:23:02 20:24:22 12° 24° (NNE) 20:25:41 145.800 FM
PCSat 20 Aug 20:27:25 20:32:30 41° 302° (WNW) 20:37:37 145.825 MHz
STRAND 1 20 Aug 20:33:37 20:38:32 50° 288° (WNW) 20:43:26 ?
HO-68 20 Aug 20:34:07 20:40:24 35° 65° (ENE) 20:46:41 435.675 MHz FM
UKube-1 20 Aug 21:24:21 21:28:22 38° 72° (ENE) 21:32:24 145.840 MHz, 145.915 MHz
FUNcube-1 20 Aug 21:40:58 21:41:42 10° 65° (ENE) 21:42:26 145.950 - 145.970 MHz USB
Oscar 11 20 Aug 21:42:27 21:46:19 33° 72° (ENE) 21:50:13 145.825 FM, Beacon 2401.500 USB
Sapphire 20 Aug 21:43:50 21:45:55 12° 315° (NW) 21:47:59 437.095 MHz 1200 baud AX-25 AFSK
PANSAT 20 Aug 21:56:12 21:57:57 13° 199° (SSW) 21:59:42 not established
ISS 20 Aug 21:58:16 22:01:36 71° 41° (NE) 22:04:55 145.800 FM
RS-15 20 Aug 22:06:40 22:12:12 15° 261° (W) 22:17:52 29.354 - 29.394 USB, Beacon 29.352 USB
HO-68 20 Aug 22:21:18 22:27:55 40° 261° (W) 22:34:34 435.675 MHz FM
AO-40 20 Aug 22:44:48 05:07:11 47° 181° (S) 08:12:40 Beacon 2401.320
UKube-1 20 Aug 23:02:02 23:04:41 16° 266° (W) 23:07:20 145.840 MHz, 145.915 MHz
FUNcube-1 20 Aug 23:13:31 23:17:35 55° 260° (W) 23:21:40 145.950 - 145.970 MHz USB
Oscar 11 20 Aug 23:19:40 23:22:33 18° 266° (W) 23:25:28 145.825 FM, Beacon 2401.500 USB
Oscar 10/S400 20 Aug 23:26:43 23:55:31 72° 183° (S) 09:28:32 145.825 - 145.975 CW/USB, Beacon 145.810 USB
KITSAT 1 21 Aug 00:08:19 00:11:26 13° 99° (E) 00:14:32 435.175 FM
MaSat-1 21 Aug 01:06:11 01:10:04 24° 56° (NE) 01:13:35 437.345 MHz
Saudisat 1A 21 Aug 01:13:26 01:17:32 39° 114° (ESE) 01:21:39 436.775 MHz
KITSAT 1 21 Aug 01:57:28 02:05:33 81° 115° (ESE) 02:13:40 435.175 FM
Oscar 19 21 Aug 02:21:44 02:26:39 41° 99° (E) 02:31:32 437.125 CW, 437.150 USB
ITAMSAT 1 21 Aug 02:30:09 02:33:58 21° 95° (E) 02:37:45 435.822 SSB
AO-Echo 21 Aug 02:36:59 02:40:50 25° 96° (E) 02:44:38 ?
Uribyol 2 21 Aug 02:42:26 02:46:55 29° 97° (E) 02:51:23 436.500 FM
MaSat-1 21 Aug 02:43:05 02:47:11 30° 256° (WSW) 02:50:49 437.345 MHz
Saudisat 1A 21 Aug 02:54:00 02:57:15 20° 310° (NW) 03:00:30 436.775 MHz
Oscar 16 21 Aug 02:54:27 02:59:41 88° 283° (WNW) 03:04:52 437.025 USB, Beacon 2401.1428
AO-27 21 Aug 02:55:27 03:00:15 38° 98° (E) 03:05:02 436.795 MHz FM
TMSAT-1 21 Aug 03:21:18 03:25:11 21° 94° (E) 03:29:03 436.925 FM
JAS-1B 21 Aug 03:25:46 03:32:59 57° 99° (E) 03:39:04 435.800 - 435.900 CW/SSB
PCSat 21 Aug 03:36:51 03:39:02 12° 45° (NE) 03:41:11 145.825 MHz
KITSAT 1 21 Aug 03:55:38 04:01:49 23° 315° (NW) 04:08:02 435.175 FM
Gurwin Techsat 1B 21 Aug 04:01:17 04:06:36 73° 102° (ESE) 04:11:53 435.225 FM
Oscar 19 21 Aug 04:01:50 04:05:40 21° 294° (WNW) 04:09:30 437.125 CW, 437.150 USB
ITAMSAT 1 21 Aug 04:08:45 04:13:34 40° 289° (WNW) 04:18:22 435.822 SSB
AO-Echo 21 Aug 04:15:34 04:19:34 28° 291° (WNW) 04:23:31 ?
Uribyol 2 21 Aug 04:21:53 04:26:17 29° 291° (WNW) 04:30:41 436.500 FM
AO-7 21 Aug 04:24:29 04:30:42 23° 95° (E) 04:36:52 29.400 - 29.500 MHz
AO-27 21 Aug 04:35:32 04:39:30 23° 293° (WNW) 04:43:28 436.795 MHz FM
OPAL 21 Aug 04:41:25 04:46:24 79° 73° (ENE) 04:51:28 ?
Sapphire 21 Aug 04:47:19 04:52:28 42° 58° (ENE) 04:57:34 437.095 MHz 1200 baud AX-25 AFSK
Uosat F 21 Aug 04:55:59 05:00:26 32° 98° (E) 05:04:51 435.120 FM
TMSAT-1 21 Aug 05:00:16 05:05:13 42° 289° (WNW) 05:10:10 436.925 FM
JAS-1B 21 Aug 05:17:26 05:22:49 22° 301° (WNW) 05:27:39 435.800 - 435.900 CW/SSB
PCSat 21 Aug 05:17:48 05:23:15 85° 64° (ENE) 05:28:40 145.825 MHz
Gurwin Techsat 1B 21 Aug 05:43:37 05:45:54 13° 298° (WNW) 05:48:11 435.225 FM
STRAND 1 21 Aug 06:09:24 06:12:51 19° 65° (ENE) 06:16:18 ?
AO-7 21 Aug 06:15:47 06:23:59 67° 291° (WNW) 06:32:08 29.400 - 29.500 MHz
SO-50 21 Aug 06:22:55 06:27:13 52° 116° (ESE) 06:31:38 436.795 FM
Sapphire 21 Aug 06:31:24 06:35:34 23° 254° (WSW) 06:39:43 437.095 MHz 1200 baud AX-25 AFSK
Uosat F 21 Aug 06:35:00 06:39:02 25° 292° (WNW) 06:43:04 435.120 FM
Hamsat 21 Aug 06:40:56 06:44:58 35° 97° (E) 06:48:57 145.90 MHz
JAS-2 21 Aug 06:59:35 07:04:33 47° 100° (E) 07:09:41 435.800 - 435.900 CW/SSB, 435.910 FM
UOSAT-12 21 Aug 07:42:29 07:46:11 25° 111° (ESE) 07:49:58 437.025 FM, 437.400 FM
STRAND 1 21 Aug 07:46:45 07:51:39 46° 260° (W) 07:56:34 ?
RS-15 21 Aug 08:02:44 08:09:49 20° 101° (E) 08:16:46 29.354 - 29.394 USB, Beacon 29.352 USB
SO-50 21 Aug 08:05:13 08:08:06 17° 313° (NW) 08:11:01 436.795 FM
AO-7 21 Aug 08:11:55 08:15:13 13° 310° (NW) 08:18:30 29.400 - 29.500 MHz
Hamsat 21 Aug 08:17:44 08:20:37 18° 292° (WNW) 08:23:29 145.90 MHz
SO-67 21 Aug 08:34:23 08:37:49 61° 283° (WNW) 08:41:13 435.3500 MHz FM
JAS-2 21 Aug 08:46:01 08:49:19 17° 295° (WNW) 08:52:40 435.800 - 435.900 CW/SSB, 435.910 FM
UOSAT-12 21 Aug 09:22:03 09:26:10 32° 307° (NW) 09:30:23 437.025 FM, 437.400 FM
Saudisat 1A 21 Aug 09:43:38 09:46:27 16° 48° (NE) 09:49:14 436.775 MHz
HO-68 21 Aug 09:51:34 09:58:24 46° 100° (E) 10:05:12 435.675 MHz FM
KITSAT 1 21 Aug 09:54:42 10:01:09 25° 46° (NE) 10:07:33 435.175 FM
RS-15 21 Aug 10:09:29 10:20:41 88° 298° (WNW) 10:31:40 29.354 - 29.394 USB, Beacon 29.352 USB
UKube-1 21 Aug 10:51:11 10:55:31 75° 284° (WNW) 10:59:50 145.840 MHz, 145.915 MHz
FUNcube-1 21 Aug 11:05:18 11:09:20 34° 98° (E) 11:13:26 145.950 - 145.970 MHz USB
Oscar 11 21 Aug 11:08:27 11:12:50 79° 284° (WNW) 11:17:11 145.825 FM, Beacon 2401.500 USB
Saudisat 1A 21 Aug 11:22:02 11:26:18 51° 244° (WSW) 11:30:33 436.775 MHz
HO-68 21 Aug 11:39:46 11:45:48 31° 296° (WNW) 11:51:49 435.675 MHz FM
KITSAT 1 21 Aug 11:49:14 11:57:16 74° 246° (WSW) 12:05:16 435.175 FM
RS-15 21 Aug 12:26:00 12:34:40 26° 323° (NW) 12:43:20 29.354 - 29.394 USB, Beacon 29.352 USB
Oscar 16 21 Aug 12:33:52 12:35:03 11° 61° (ENE) 12:36:15 437.025 USB, Beacon 2401.1428
FUNcube-1 21 Aug 12:42:20 12:45:29 19° 291° (WNW) 12:48:40 145.950 - 145.970 MHz USB
Oscar 19 21 Aug 13:35:49 13:40:40 44° 72° (ENE) 13:45:34 437.125 CW, 437.150 USB
ITAMSAT 1 21 Aug 13:45:31 13:49:37 24° 67° (ENE) 13:53:43 435.822 SSB
AO-Echo 21 Aug 13:46:57 13:51:14 27° 69° (ENE) 13:55:27 ?
KITSAT 1 21 Aug 13:49:43 13:51:16 11° 262° (W) 13:52:49 435.175 FM
Uribyol 2 21 Aug 13:57:37 14:02:12 34° 70° (ENE) 14:06:48 436.500 FM
JAS-1B 21 Aug 14:03:23 14:12:36 47° 67° (ENE) 14:21:29 435.800 - 435.900 CW/SSB
Oscar 16 21 Aug 14:08:31 14:13:39 82° 257° (WSW) 14:18:50 437.025 USB, Beacon 2401.1428
AO-27 21 Aug 14:10:48 14:15:41 44° 71° (ENE) 14:20:35 436.795 MHz FM
ISS 21 Aug 14:38:39 14:41:56 67° 320° (NW) 14:45:15 145.800 FM
TMSAT-1 21 Aug 14:39:20 14:43:34 25° 68° (ENE) 14:47:48 436.925 FM
RS-15 21 Aug 14:49:04 14:52:55 12° 359° (N) 14:56:48 29.354 - 29.394 USB, Beacon 29.352 USB
MaSat-1 21 Aug 14:52:45 14:55:48 18° 100° (E) 14:59:02 437.345 MHz
SO-50 21 Aug 14:57:29 15:01:24 25° 51° (NE) 15:05:21 436.795 FM
Oscar 19 21 Aug 15:16:41 15:20:11 18° 266° (W) 15:23:43 437.125 CW, 437.150 USB
Gurwin Techsat 1B 21 Aug 15:19:29 15:24:47 85° 76° (ENE) 15:30:07 435.225 FM
AO-7 21 Aug 15:20:44 15:27:18 27° 59° (ENE) 15:33:51 29.400 - 29.500 MHz
ITAMSAT 1 21 Aug 15:24:10 15:28:53 35° 262° (W) 15:33:37 435.822 SSB
AO-Echo 21 Aug 15:25:15 15:29:51 31° 263° (W) 15:34:22 ?
Uribyol 2 21 Aug 15:37:30 15:41:40 25° 264° (W) 15:45:52 436.500 FM
AO-27 21 Aug 15:51:43 15:55:21 19° 266° (W) 15:59:00 436.795 MHz FM
JAS-1B 21 Aug 15:53:38 16:02:52 45° 263° (W) 16:11:58 435.800 - 435.900 CW/SSB
Uosat F 21 Aug 16:06:33 16:11:00 33° 70° (ENE) 16:15:28 435.120 FM
UOSAT-12 21 Aug 16:15:38 16:17:45 13° 44° (NE) 16:19:52 437.025 FM, 437.400 FM
ISS 21 Aug 16:18:01 16:19:12 11° 337° (NNW) 16:20:23 145.800 FM
TMSAT-1 21 Aug 16:18:27 16:23:16 35° 262° (W) 16:28:06 436.925 FM
MaSat-1 21 Aug 16:27:58 16:32:25 45° 298° (WNW) 16:37:19 437.345 MHz
PANSAT 21 Aug 16:31:42 16:33:55 15° 163° (SSE) 16:36:07 not established
SO-50 21 Aug 16:37:38 16:42:02 37° 246° (WSW) 16:46:28 436.795 FM
OPAL 21 Aug 16:54:39 16:59:03 27° 98° (E) 17:03:25 ?
RS-15 21 Aug 17:02:50 17:11:22 25° 36° (NE) 17:20:04 29.354 - 29.394 USB, Beacon 29.352 USB
JAS-2 21 Aug 17:10:21 17:14:26 18° 65° (ENE) 17:18:16 435.800 - 435.900 CW/SSB, 435.910 FM
AO-7 21 Aug 17:11:09 17:19:25 65° 256° (WSW) 17:27:43 29.400 - 29.500 MHz
Hamsat 21 Aug 17:32:24 17:35:21 18° 68° (ENE) 17:38:18 145.90 MHz
